Weather History for Whiteville, NC

Change the Weather History Date:

Thursday, December 20, 2012

  Actual Average (KLBT) Record (KLBT)
Temperature  
Mean Temperature 54 °F 45 °F  
Max Temperature 70 °F 55 °F 73 °F (2008)
Min Temperature 37 °F 35 °F 15 °F (2004)
Degree Days  
Heating Degree Days 12 20  
Month to date heating degree days 356  
Since 1 July heating degree days 822  
Cooling Degree Days 0 0  
Month to date cooling degree days 0  
Year to date cooling degree days 1907  
Growing Degree Days 4 (Base 50)    
Moisture  
Dew Point 49 °F    
Average Humidity 82    
Maximum Humidity 98    
Minimum Humidity 47    
Precipitation  
Precipitation 0.11 in 0.09 in 0.53 in (2008)
Month to date precipitation 2.02  
Year to date precipitation 42.65  
Sea Level Pressure  
Sea Level Pressure 29.94 in    
Wind  
Wind Speed 5 mph (SE)    
Max Wind Speed 22 mph    
Max Gust Speed 33 mph    
Visibility 9 miles    
Events Rain    
T = Trace of Precipitation, MM = Missing Value Source: NWS Daily Summary

Daily Weather History Graph

Daily Weather History Graph

Search for Another Location

Airport:

Trip Planner

Search our weather history database for the weather conditions in past years. The results will help you decide how hot, cold, wet, or windy it might be!

Date:

Astronomy

Dec. 20, 2012 Rise Set
Actual Time 7:16 AM EST 5:08 PM EST
Civil Twilight 6:48 AM EST 5:36 PM EST
Nautical Twilight 6:17 AM EST 6:08 PM EST
Astronomical Twilight 5:46 AM EST 6:38 PM EST
Moon 12:13 PM EST (12/20) 12:15 AM EST (12/20)
Length of Visible Light 10h 47m
Length of Day
9h 51m
First Quarter, 55% of the Moon is Illuminated
Dec 20
First Quarter
Dec 28
Full
Jan 4
Last Quarter
Jan 11
New
Jan 18
First Quarter

Hourly Weather History & Observations

Time (EST) Temp. Windchill Dew Point Humidity Pressure Visibility Wind Dir Wind Speed Gust Speed Precip Events Conditions
12:15 AM 41.9 °F - 40.3 °F 94% 30.12 in 10.0 mi Calm Calm - N/A   Clear
12:35 AM 41.9 °F - 40.5 °F 95% 30.12 in 10.0 mi Calm Calm - N/A   Clear
12:55 AM 42.1 °F - 40.3 °F 93% 30.11 in 10.0 mi Calm Calm - N/A   Clear
1:15 AM 42.3 °F - 40.5 °F 93% 30.11 in 10.0 mi Calm Calm - N/A   Clear
1:35 AM 41.2 °F - 40.1 °F 96% 30.12 in 10.0 mi Calm Calm - N/A   Clear
1:55 AM 41.2 °F - 39.7 °F 95% 30.11 in 10.0 mi Calm Calm - N/A   Clear
2:15 AM 41.0 °F - 39.6 °F 95% 30.12 in 10.0 mi Calm Calm - N/A   Clear
2:35 AM 41.0 °F - 39.4 °F 94% 30.12 in 10.0 mi Calm Calm - N/A   Clear
2:55 AM 41.2 °F - 39.9 °F 95% 30.12 in 10.0 mi Calm Calm - N/A   Clear
3:15 AM 39.9 °F - 38.7 °F 95% 30.12 in 10.0 mi Calm Calm - N/A   Clear
3:35 AM 39.2 °F - 38.3 °F 97% 30.12 in 10.0 mi Calm Calm - N/A   Clear
3:55 AM 39.9 °F - 38.7 °F 95% 30.12 in 10.0 mi Calm Calm - N/A   Clear
4:15 AM 38.1 °F - 36.9 °F 95% 30.11 in 10.0 mi Calm Calm - N/A   Clear
4:35 AM 38.3 °F - 37.6 °F 97% 30.12 in 7.0 mi Calm Calm - N/A   Clear
4:55 AM 38.5 °F - 37.8 °F 97% 30.11 in 10.0 mi Calm Calm - N/A   Clear
5:15 AM 38.3 °F - 37.4 °F 97% 30.12 in 10.0 mi Calm Calm - N/A   Clear
5:35 AM 37.8 °F - 36.9 °F 97% 30.12 in 10.0 mi Calm Calm - N/A   Clear
5:55 AM 38.3 °F - 37.6 °F 97% 30.11 in 10.0 mi Calm Calm - N/A   Clear
6:15 AM 37.4 °F - 36.5 °F 97% 30.11 in 10.0 mi Calm Calm - N/A   Clear
6:35 AM 38.7 °F - 38.1 °F 98% 30.13 in 10.0 mi Calm Calm - N/A   Clear
6:55 AM 39.4 °F 37.2 °F 38.8 °F 98% 30.12 in 10.0 mi NE 3.5 mph - N/A   Clear
7:15 AM 40.8 °F 38.8 °F 40.1 °F 97% 30.12 in 10.0 mi NE 3.5 mph - N/A   Clear
7:35 AM 42.1 °F 40.2 °F 40.6 °F 95% 30.12 in 10.0 mi NE 3.5 mph - N/A   Clear
7:55 AM 41.9 °F 40.0 °F 40.3 °F 94% 30.12 in 10.0 mi NE 3.5 mph - N/A   Clear
8:15 AM 43.7 °F 42.1 °F 41.7 °F 93% 30.12 in 10.0 mi ENE 3.5 mph - N/A   Clear
8:35 AM 44.6 °F - 42.4 °F 92% 30.12 in 10.0 mi Calm Calm - N/A   Clear
8:55 AM 45.7 °F 44.4 °F 43.2 °F 91% 30.12 in 10.0 mi ENE 3.5 mph - N/A   Clear
9:15 AM 47.3 °F - 43.9 °F 88% 30.11 in 10.0 mi East 4.6 mph - N/A   Clear
9:35 AM 50.0 °F - 45.9 °F 86% 30.10 in 10.0 mi East 4.6 mph - N/A   Clear
9:55 AM 52.9 °F - 47.1 °F 81% 30.08 in 10.0 mi East 5.8 mph - N/A   Clear
10:15 AM 55.0 °F - 48.6 °F 79% 30.08 in 10.0 mi East 6.9 mph - N/A   Clear
10:35 AM 56.3 °F - 49.1 °F 77% 30.07 in 10.0 mi ESE 9.2 mph - N/A   Clear
10:55 AM 57.7 °F - 49.6 °F 74% 30.05 in 10.0 mi ESE 6.9 mph - N/A   Clear
11:15 AM 58.8 °F - 50.0 °F 73% 30.05 in 10.0 mi ESE 4.6 mph - N/A   Clear
11:35 AM 60.8 °F - 50.4 °F 68% 30.05 in 10.0 mi ESE 4.6 mph - N/A   Clear
11:55 AM 62.8 °F - 50.2 °F 63% 30.03 in 10.0 mi SE 8.1 mph - N/A   Clear
12:15 PM 64.9 °F - 50.7 °F 60% 30.02 in 10.0 mi SSE 5.8 mph - N/A   Clear
12:35 PM 65.3 °F - 50.4 °F 58% 30.00 in 10.0 mi ESE 8.1 mph - N/A   Clear
12:55 PM 66.7 °F - 50.7 °F 56% 29.98 in 10.0 mi SE 5.8 mph - N/A   Clear
1:15 PM 68.0 °F - 50.7 °F 54% 29.96 in 10.0 mi SE 9.2 mph - N/A   Clear
1:35 PM 68.9 °F - 50.7 °F 52% 29.95 in 10.0 mi SE 11.5 mph - N/A   Clear
1:55 PM 69.8 °F - 50.2 °F 50% 29.93 in 10.0 mi South 11.5 mph 17.3 mph N/A   Clear
2:15 PM 70.2 °F - 49.3 °F 47% 29.90 in 10.0 mi SSE 19.6 mph 25.3 mph N/A   Scattered Clouds
2:35 PM 70.2 °F - 48.9 °F 47% 29.90 in 10.0 mi SSE 15.0 mph 24.2 mph N/A   Scattered Clouds
3:15 PM 69.4 °F - 50.7 °F 51% 29.87 in 10.0 mi SSE 10.4 mph 20.7 mph N/A   Mostly Cloudy
3:35 PM 68.9 °F - 52.7 °F 56% 29.87 in 10.0 mi SSE 12.7 mph 23.0 mph N/A   Scattered Clouds
3:55 PM 68.2 °F - 54.7 °F 62% 29.87 in 10.0 mi South 10.4 mph 16.1 mph N/A   Scattered Clouds
4:15 PM 68.0 °F - 55.4 °F 64% 29.85 in 10.0 mi South 15.0 mph - N/A   Scattered Clouds
4:35 PM 67.5 °F - 55.4 °F 65% 29.85 in 10.0 mi South 13.8 mph 19.6 mph N/A   Clear
4:55 PM 67.1 °F - 55.6 °F 66% 29.83 in 10.0 mi SSE 11.5 mph 18.4 mph N/A   Clear
5:15 PM 66.4 °F - 55.9 °F 69% 29.82 in 10.0 mi SSE 11.5 mph 16.1 mph N/A   Clear
5:35 PM 66.4 °F - 56.3 °F 70% 29.80 in 10.0 mi SSE 12.7 mph 18.4 mph N/A   Scattered Clouds
5:55 PM 66.4 °F - 56.3 °F 70% 29.79 in 10.0 mi SSE 13.8 mph 17.3 mph N/A   Scattered Clouds
6:15 PM 66.7 °F - 56.5 °F 70% 29.78 in 10.0 mi SSE 15.0 mph 21.9 mph N/A   Scattered Clouds
6:35 PM 67.3 °F - 56.5 °F 68% 29.77 in 10.0 mi SSE 17.3 mph 26.5 mph N/A   Scattered Clouds
6:55 PM 68.0 °F - 56.8 °F 67% 29.76 in 10.0 mi South 15.0 mph 26.5 mph N/A   Scattered Clouds
7:15 PM 68.0 °F - 57.9 °F 70% 29.78 in 10.0 mi South 16.1 mph - N/A   Mostly Cloudy
7:35 PM 67.8 °F - 59.5 °F 75% 29.76 in 10.0 mi South 13.8 mph 21.9 mph N/A Rain Light Rain
7:55 PM 66.7 °F - 60.8 °F 81% 29.74 in 10.0 mi SSE 12.7 mph 21.9 mph N/A Rain Light Rain
8:15 PM 67.1 °F - 60.8 °F 80% 29.71 in 10.0 mi SSE 13.8 mph 20.7 mph N/A   Clear
8:35 PM 66.2 °F - 61.7 °F 85% 29.69 in 7.0 mi SSE 17.3 mph 25.3 mph N/A Rain Light Rain
8:55 PM 65.7 °F - 62.2 °F 89% 29.68 in 7.0 mi SSE 15.0 mph 21.9 mph N/A Rain Light Rain
9:15 PM 65.5 °F - 62.6 °F 90% 29.67 in 7.0 mi South 17.3 mph 28.8 mph 0.01 in Rain Rain
9:35 PM 64.9 °F - 62.6 °F 92% 29.66 in 7.0 mi South 15.0 mph 23.0 mph 0.02 in Rain Light Rain
9:55 PM 64.8 °F - 62.8 °F 93% 29.62 in 4.0 mi SSE 15.0 mph 29.9 mph 0.03 in Rain Rain
10:15 PM 64.6 °F - 63.0 °F 94% 29.61 in 5.0 mi South 20.7 mph 33.4 mph 0.02 in Rain Rain
10:35 PM 64.6 °F - 63.0 °F 94% 29.59 in 5.0 mi South 17.3 mph 29.9 mph 0.03 in Rain Light Rain
10:55 PM 64.6 °F - 63.1 °F 95% 29.58 in 4.0 mi South 19.6 mph 32.2 mph 0.05 in Rain Rain
11:15 PM 64.8 °F - 63.5 °F 96% 29.57 in 4.0 mi South 19.6 mph 25.3 mph 0.01 in Rain Light Rain
11:35 PM 64.9 °F - 63.5 °F 95% 29.56 in 7.0 mi SSW 21.9 mph 29.9 mph 0.02 in Rain Light Rain
11:55 PM 64.9 °F - 63.5 °F 95% 29.55 in 4.0 mi SSW 20.7 mph 27.6 mph 0.03 in Rain Light Rain